Temperature
22 24 25 25 25 25 24 23 22 23 23 23 23 23 24 25 25 24 24 24 24 24 23 23 23 22 22 22 21 21 20 20 20 20 19 19 19 19 19 18 18 18 18 18
22 24 25 25 25 25 25 25 24 24 24 23 24 24 24 24 24 24 24 24 24 24 23 23 22 22 22 22 21 21 21 20 20 20 19 19 19 19 19 18 18 18 18 18
20 22 24 23 24 25 25 25 25 24 24 23 23 23 23 24 24 24 24 24 24 24 24 23 23 22 22 22 21 21 20 20 20 20 20 19 19 19 19 18 18 18 18 18
18 21 22 22 23 25 25 25 24 24 24 23 23 24 25 25 25 24 24 24 24 24 24 23 23 22 22 22 21 21 21 20 20 20 20 19 19 19 19 18 18 18 18 18
17 19 21 22 24 25 24 23 24 23 23 24 24 24 23 24 25 25 25 24 24 24 24 23 23 22 22 21 21 21 21 20 20 20 20 19 19 19 19 18 18 18 18 18
18 20 20 22 24 25 24 22 23 23 22 23 23 21 21 24 24 24 24 24 24 23 23 23 22 22 22 21 21 21 21 20 20 20 19 19 19 19 18 18 18 18 18 18
18 19 20 21 23 24 22 21 22 23 23 23 22 22 23 24 24 24 24 24 23 23 22 22 22 22 21 21 20 20 20 20 20 19 19 19 19 18 18 18 18 18 18 17
17 18 19 21 22 21 20 22 22 23 23 23 23 23 23 23 23 23 23 23 23 23 22 21 21 21 21 20 20 20 20 20 19 19 19 19 18 18 18 18 17 17 17 17
17 18 19 21 21 22 22 22 22 22 23 23 23 23 23 23 23 23 23 22 22 22 22 21 21 21 21 20 20 20 19 19 19 19 18 18 18 18 17 17 17 17 17 17
17 18 19 20 21 22 22 22 22 22 23 23 23 22 22 22 22 22 22 22 22 21 21 21 20 20 20 20 20 19 19 19 18 18 18 18 17 17 17 17 17 16 17 17
16 17 19 19 20 21 21 22 22 22 22 22 22 22 22 22 22 21 21 21 21 21 20 20 20 19 19 19 19 19 19 18 18 18 17 17 17 17 17 17 16 16 16 16
16 17 17 18 19 20 20 20 21 21 21 21 21 21 21 21 21 21 21 20 20 20 20 19 19 19 19 18 18 18 18 18 17 17 17 17 16 16 16 16 16 16 16 16
18 18 18 19 19 19 19 19 20 20 20 20 20 21 21 20 20 20 20 20 20 20 19 19 19 18 18 18 18 18 17 17 17 16 16 16 16 16 16 16 16 16 16 16
19 19 18 18 18 19 19 19 19 19 19 19 20 20 20 20 19 19 19 19 19 19 19 19 18 18 18 18 17 17 17 17 16 16 16 16 15 15 15 15 15 15 15 15
18 18 18 18 18 18 18 18 18 18 18 18 19 19 19 19 19 19 19 19 19 18 18 18 18 18 17 17 17 17 16 16 16 16 16 15 15 15 15 15 15 15 15 15
18 18 18 17 17 17 17 17 17 17 17 18 18 18 18 18 18 18 18 18 18 18 18 18 18 17 17 17 17 16 16 16 16 16 15 15 15 15 15 15 14 15 15 15
17 17 17 17 16 16 16 17 16 16 17 17 17 17 17 17 17 17 17 17 17 17 17 17 17 17 17 16 16 16 16 16 16 15 15 15 15 15 15 14 14 14 14 14
17 17 17 16 16 16 16 16 16 16 16 16 16 16 17 17 17 17 17 17 17 17 17 16 16 16 16 16 16 16 16 15 15 15 15 15 15 14 14 14 14 14 14 14
17 17 16 16 16 16 16 16 16 16 16 16 16 16 16 16 16 17 17 17 16 16 16 16 16 15 15 15 15 15 15 15 15 15 14 14 14 14 14 14 14 14 14 14
16 16 16 16 16 16 16 16 16 16 16 16 16 16 16 16 16 16 16 16 16 16 16 15 15 15 15 15 15 14 14 14 14 14 14 14 14 14 14 14 14 13 13 13
16 16 16 15 15 15 16 16 15 15 15 15 15 15 16 15 16 15 15 15 15 15 15 15 15 15 14 14 14 14 14 14 14 14 13 13 13 13 13 13 13 13 12 12
15 15 15 15 15 15 15 15 15 15 15 15 15 15 15 15 15 15 15 15 15 15 15 14 14 14 14 14 14 13 13 13 13 13 13 13 13 13 12 12 12 12 12 12
15 15 15 15 15 15 15 14 14 15 15 15 14 14 14 14 14 14 14 14 14 14 14 14 14 13 13 13 13 13 13 13 13 13 12 12 12 12 12 11 11 11 11 11
14 14 14 14 14 14 14 14 14 14 14 14 14 14 14 14 14 14 14 14 14 13 13 13 13 13 13 13 13 13 12 12 12 12 12 12 11 11 11 11 11 11 11 10
14 14 14 14 14 14 13 13 13 13 13 14 14 14 14 13 13 13 13 13 13 13 13 13 13 13 13 12 12 12 12 12 12 12 11 11 11 11 11 10 10 10 10 10
13 13 13 13 13 13 13 13 13 13 13 13 13 13 13 13 13 13 13 13 12 12 12 12 12 12 12 12 12 12 12 12 11 11 11 11 11 11 10 10 10 10 9 9
13 13 13 13 13 13 13 13 13 13 13 13 13 13 13 12 12 12 12 12 12 12 12 12 12 12 12 12 11 11 11 11 11 11 11 11 10 10 10 10 10 9 9 9
Wind_Speed
5 5 2 3 4 3 4 7 8 8 8 9 9 9 9 9 9 9 9 10 12 11 10 9 9 9 9 9 9 9 9 8 8 8 7 6 6 6 5 5 5 5 4 3
2 2 2 2 4 5 5 4 5 5 6 7 6 6 6 8 10 10 10 11 12 12 11 11 11 10 9 8 9 9 9 9 8 7 7 7 7 6 5 5 4 4 4 4
2 4 3 4 6 5 3 3 6 7 8 5 6 8 9 10 10 10 10 10 12 12 12 12 11 11 10 9 8 9 9 8 8 7 7 8 8 6 6 6 5 5 5 5
2 2 5 9 6 3 3 4 5 7 6 9 10 8 6 7 10 10 9 9 9 9 9 9 9 9 9 9 9 8 8 7 7 7 7 6 6 7 7 6 6 6 6 6
3 3 5 7 4 2 2 4 3 4 5 7 7 6 2 3 8 10 10 8 8 8 8 8 9 9 9 7 7 7 7 7 7 7 7 6 6 6 6 6 6 6 5 6
3 3 5 7 6 2 4 2 4 1 5 6 7 5 5 6 7 7 7 7 7 8 7 7 7 8 8 7 7 7 7 6 6 6 6 7 7 6 5 5 6 5 5 6
4 4 6 6 6 2 3 6 5 1 4 5 5 7 7 7 8 8 7 7 8 8 7 6 7 8 8 7 7 6 6 6 5 5 5 6 5 4 4 4 4 4 5 5
4 3 6 5 3 2 4 3 1 1 4 5 5 5 6 8 8 8 8 8 8 8 6 5 6 8 8 6 6 5 5 5 5 5 5 4 4 4 4 5 5 5 5 5
7 7 5 1 3 2 2 2 0 1 3 6 7 6 6 6 7 6 6 7 7 8 7 5 5 7 7 5 4 4 4 4 4 4 4 4 4 5 4 5 5 5 5 6
1 2 2 2 3 4 4 3 3 2 2 5 7 7 7 6 6 6 5 6 6 7 6 5 5 5 5 5 5 5 4 4 4 4 4 3 3 4 5 5 5 5 5 5
0 2 4 5 4 4 4 4 5 5 3 3 7 7 7 6 6 6 5 5 6 7 7 6 5 4 4 5 5 5 3 3 3 4 4 4 3 3 4 5 6 6 6 5
3 4 2 3 4 3 4 4 4 4 3 2 6 6 6 5 5 6 6 5 5 5 5 5 4 4 3 4 5 5 4 3 2 3 3 3 3 2 3 4 6 7 8 7
4 3 3 2 2 3 2 2 2 3 1 2 3 4 5 5 4 5 6 6 6 6 6 5 5 4 3 3 4 4 4 3 2 2 2 3 3 3 3 4 5 6 7 8
2 2 2 2 2 3 2 2 2 3 2 2 3 3 4 4 4 5 6 6 5 5 5 5 5 4 4 4 4 4 3 3 2 2 3 3 3 3 4 4 4 5 6 8
1 2 2 1 1 2 3 3 3 2 3 2 2 3 4 5 5 5 5 5 4 4 4 4 4 3 3 4 4 4 3 2 2 2 3 3 4 4 4 4 5 5 4 5
1 2 3 2 1 1 2 2 1 1 1 1 1 1 2 3 4 4 4 5 5 5 5 4 4 4 4 4 4 3 3 3 3 2 2 3 3 3 4 4 4 4 5 5
3 3 3 1 1 1 1 0 1 0 0 1 0 1 2 2 2 2 2 3 4 4 4 5 4 4 4 4 4 3 2 2 3 2 2 3 3 3 4 4 4 5 5 5
5 6 6 6 5 2 1 1 1 0 1 1 1 2 2 2 2 2 2 3 3 2 3 4 4 3 3 3 3 3 2 2 3 3 3 3 3 3 4 4 4 5 5 5
3 4 4 4 4 4 3 3 2 1 1 1 2 2 1 2 2 2 3 4 4 3 3 3 4 3 3 4 3 3 3 3 3 3 3 3 3 3 3 3 3 4 4 3
2 2 3 3 3 3 3 3 2 2 2 2 2 2 2 2 2 2 2 2 3 4 4 3 3 3 3 3 2 2 2 2 3 2 2 2 2 2 2 2 2 2 3 3
3 3 3 3 2 2 2 2 2 2 2 3 3 3 3 2 2 3 2 1 2 2 1 2 2 2 2 1 1 1 1 1 2 2 2 2 2 2 2 2 2 2 2 2
3 4 4 3 2 1 1 2 2 2 2 2 2 2 3 2 2 2 2 2 2 0 1 1 1 1 1 1 1 0 1 1 1 1 1 2 1 1 2 2 2 2 2 2
3 3 4 3 3 3 2 2 1 2 2 2 2 2 2 2 2 2 1 1 1 1 1 1 1 2 1 1 1 0 0 0 1 1 1 1 1 1 1 2 2 2 1 1
3 3 3 2 3 3 2 1 1 1 2 1 2 2 3 2 1 0 1 1 1 1 1 1 2 1 1 1 1 1 0 0 1 1 1 1 1 1 1 0 0 1 1 1
2 2 2 2 2 2 2 3 2 1 1 1 1 1 2 2 2 1 1 1 1 1 1 1 1 0 0 1 1 0 0 1 1 0 0 0 0 0 1 1 1 1 1 1
1 1 1 2 2 2 2 2 2 1 2 1 0 0 1 1 2 2 1 2 2 1 1 1 1 0 1 1 0 0 0 0 0 1 1 0 1 1 2 2 2 2 2 2
0 0 0 0 1 0 1 2 2 2 2 2 2 1 2 2 2 2 2 2 1 1 1 1 0 1 1 1 1 1 1 1 1 1 1 1 1 1 2 2 2 2 2 2
Wind_Direction
217 223 210 245 253 244 198 189 192 217 210 219 206 189 184 170 157 148 156 164 168 171 174 173 172 175 176 178 177 176 173 178 189 190 185 184 187 190 190 188 195 189 184 195
308 300 324 291 270 267 243 205 200 192 237 226 198 164 169 171 160 159 166 173 174 173 172 176 178 176 173 174 175 171 176 185 187 184 185 188 191 192 189 193 196 187 193 199
267 302 20 268 237 234 242 237 185 206 223 177 164 172 179 181 170 166 171 178 177 175 177 180 179 174 175 174 171 172 179 184 185 185 191 199 199 193 197 201 198 199 207 206
165 54 228 242 239 219 224 253 226 208 189 171 176 183 182 176 169 171 170 171 171 172 171 172 170 169 170 168 168 173 181 189 190 186 192 197 197 200 205 205 204 210 216 217
137 190 266 289 276 209 184 287 281 201 177 164 139 91 61 191 170 170 169 169 168 164 160 160 168 170 162 160 164 171 182 190 195 190 190 193 199 208 211 208 214 218 215 217
146 170 222 250 281 265 113 277 310 122 156 157 124 136 211 191 160 156 151 151 149 146 135 144 159 157 151 156 159 175 183 186 188 185 188 197 204 207 209 211 220 220 226 226
172 207 252 262 296 22 132 234 284 207 160 154 167 182 183 155 143 140 135 128 128 131 137 152 152 145 151 159 175 185 179 179 183 183 190 198 201 207 212 216 221 224 230 238
160 188 249 293 19 116 217 256 277 217 171 150 142 129 131 135 132 131 129 125 129 134 143 151 148 142 148 171 188 177 167 174 186 191 200 207 198 215 221 211 221 233 238 249
187 207 229 248 144 201 166 112 73 219 178 145 134 135 135 133 128 129 130 133 139 144 145 148 154 154 160 179 164 156 160 178 192 195 202 202 200 212 219 218 223 235 236 244
116 275 284 351 55 50 49 63 37 58 120 134 137 138 133 131 130 128 131 139 140 135 140 156 166 164 168 165 156 150 165 184 191 192 201 208 209 210 213 220 224 231 231 241
55 299 355 9 26 35 35 31 42 50 65 124 131 133 133 136 139 140 137 140 138 143 154 164 159 161 166 161 154 152 163 177 197 203 206 212 220 230 226 230 224 224 231 231
219 237 198 286 329 27 42 23 31 53 40 97 130 141 139 145 150 147 143 139 143 150 155 156 154 158 161 159 157 160 167 178 198 207 210 209 213 264 279 253 252 242 232 227
208 227 206 256 348 31 38 16 37 61 91 119 121 136 140 141 146 144 142 141 153 158 156 153 151 156 164 157 151 158 173 183 193 213 212 219 222 226 264 291 283 265 254 243
192 107 25 328 321 1 16 9 40 46 42 96 116 126 131 127 138 149 158 166 162 155 153 154 154 171 179 155 149 165 178 188 194 216 220 219 224 229 236 246 267 276 267 252
257 152 197 266 342 32 29 23 28 41 56 51 75 108 130 140 160 173 164 150 142 147 157 158 163 188 177 154 156 171 188 208 211 223 231 232 227 228 235 242 251 264 279 278
204 101 91 61 347 8 33 37 36 342 80 89 80 117 154 155 160 157 152 149 154 169 181 172 184 198 172 157 156 170 191 204 209 222 233 239 235 236 239 243 252 257 259 259
172 170 157 168 280 327 343 121 153 291 321 122 157 114 107 101 113 138 159 168 168 174 179 182 194 192 171 168 173 187 196 220 234 242 238 242 245 240 240 243 249 253 256 253
200 199 188 178 180 170 132 130 165 226 252 214 135 100 102 125 173 191 187 160 145 163 198 199 194 187 181 187 193 196 202 217 229 239 246 246 245 245 241 243 249 252 260 267
200 189 187 186 178 161 167 185 188 178 219 199 137 128 147 175 188 181 161 147 152 184 231 223 192 181 206 224 215 204 210 225 239 247 244 242 247 250 250 253 257 257 259 261
161 151 156 159 152 161 183 192 185 189 202 174 161 173 189 203 173 153 140 154 204 211 216 207 191 200 218 226 212 199 205 221 235 248 252 245 245 250 255 256 257 266 267 263
138 130 130 133 145 164 176 168 165 193 199 173 172 182 178 176 144 130 135 181 271 263 210 170 169 190 204 206 196 196 221 238 242 251 250 254 253 259 267 271 275 274 269 271
132 130 136 142 135 126 161 139 139 147 139 128 125 136 136 141 138 134 171 209 238 345 78 118 146 158 168 141 138 182 212 238 255 259 257 253 254 264 276 283 285 282 277 272
132 129 132 149 153 153 116 91 110 124 114 112 118 129 144 167 160 155 233 266 174 88 72 78 123 134 116 79 95 110 150 282 284 270 255 247 245 247 268 287 295 293 286 289
111 128 151 159 135 125 130 157 174 131 127 127 126 140 142 130 50 214 186 188 125 101 88 95 110 126 97 70 92 97 57 316 298 283 286 284 268 277 284 290 340 356 33 40
123 129 129 128 137 164 183 189 175 142 124 122 124 121 131 151 175 206 134 121 128 121 85 83 110 154 104 100 118 138 270 257 246 235 34 336 331 46 69 85 85 73 71 66
134 162 179 179 183 187 181 168 164 156 138 126 88 63 98 113 125 122 113 118 118 110 94 77 75 59 77 90 86 112 32 328 37 61 73 98 104 113 112 99 82 79 74 69
139 153 123 30 1 66 122 149 155 175 176 163 152 138 124 113 102 101 100 92 81 81 82 79 90 94 89 98 90 73 57 40 36 43 62 84 104 117 117 103 89 83 84 80
Height
1483 1479 1477 1480 1480 1479 1485 1492 1500 1495 1492 1484 1479 1479 1481 1483 1484 1486 1489 1491 1494 1497 1500 1502 1505 1507 1510 1512 1514 1516 1518 1520 1521 1523 1524 1526 1527 1529 1530 1530 1531 1532 1532 1532
1484 1476 1476 1478 1476 1476 1477 1478 1483 1484 1484 1474 1475 1477 1480 1481 1482 1484 1487 1489 1492 1494 1497 1500 1503 1505 1507 1509 1512 1514 1516 1517 1519 1520 1522 1523 1524 1526 1527 1527 1528 1529 1529 1529
1495 1483 1480 1488 1477 1475 1474 1472 1475 1482 1477 1472 1474 1475 1476 1477 1478 1481 1484 1487 1489 1491 1494 1497 1500 1502 1504 1507 1509 1511 1513 1515 1516 1517 1519 1520 1521 1522 1523 1524 1525 1525 1526 1526
1498 1492 1500 1484 1466 1465 1468 1467 1466 1466 1466 1468 1468 1470 1472 1473 1475 1479 1482 1485 1487 1489 1492 1494 1497 1500 1502 1504 1506 1508 1510 1512 1513 1514 1515 1517 1518 1519 1520 1521 1521 1521 1522 1523
1501 1500 1492 1475 1463 1463 1467 1470 1464 1464 1463 1465 1466 1470 1474 1474 1475 1477 1480 1482 1485 1487 1490 1492 1495 1497 1499 1501 1504 1505 1507 1508 1510 1511 1512 1514 1515 1515 1516 1517 1518 1518 1518 1519
1496 1497 1498 1478 1460 1458 1462 1474 1463 1462 1462 1463 1465 1474 1475 1473 1475 1477 1479 1481 1483 1486 1488 1491 1493 1495 1497 1499 1500 1502 1503 1505 1507 1508 1509 1510 1511 1512 1513 1514 1514 1514 1515 1515
1493 1494 1484 1465 1458 1457 1477 1477 1463 1461 1460 1461 1462 1465 1468 1470 1472 1475 1478 1480 1482 1484 1486 1488 1491 1493 1494 1496 1498 1499 1501 1503 1504 1505 1506 1507 1508 1509 1510 1510 1511 1510 1510 1511
1490 1493 1487 1461 1459 1466 1468 1462 1461 1460 1459 1460 1461 1463 1466 1468 1470 1473 1475 1478 1480 1483 1485 1487 1488 1490 1492 1493 1495 1497 1498 1500 1501 1502 1503 1504 1504 1505 1506 1506 1506 1506 1506 1506
1476 1477 1466 1461 1461 1462 1461 1461 1461 1460 1460 1460 1461 1463 1465 1467 1469 1472 1474 1476 1479 1481 1483 1485 1486 1488 1489 1491 1493 1494 1495 1496 1497 1498 1500 1500 1501 1501 1502 1502 1502 1502 1502 1501
1469 1466 1462 1461 1459 1459 1460 1460 1459 1460 1460 1460 1461 1462 1464 1467 1469 1470 1472 1475 1477 1478 1480 1482 1484 1485 1487 1488 1490 1491 1492 1493 1494 1495 1495 1496 1497 1497 1497 1497 1497 1497 1497 1496
1467 1464 1461 1460 1460 1459 1459 1459 1458 1459 1460 1461 1461 1462 1463 1465 1467 1469 1471 1472 1475 1477 1478 1480 1481 1483 1484 1486 1487 1488 1489 1489 1490 1490 1492 1492 1492 1493 1492 1492 1493 1493 1492 1492
1468 1464 1464 1463 1461 1460 1459 1459 1459 1458 1459 1460 1461 1461 1462 1464 1466 1467 1469 1471 1473 1475 1476 1478 1480 1481 1482 1483 1484 1485 1485 1485 1486 1487 1487 1488 1488 1488 1488 1488 1488 1488 1488 1487
1461 1461 1461 1461 1461 1461 1460 1460 1460 1458 1458 1458 1459 1460 1461 1462 1463 1466 1467 1469 1471 1472 1474 1476 1478 1478 1479 1480 1481 1482 1482 1482 1483 1483 1483 1484 1484 1483 1483 1483 1483 1483 1482 1482
1458 1458 1459 1459 1459 1458 1459 1459 1459 1458 1457 1457 1457 1458 1460 1461 1463 1464 1466 1467 1469 1470 1472 1474 1475 1476 1477 1478 1479 1479 1480 1480 1480 1480 1480 1480 1480 1479 1479 1478 1478 1477 1477 1477
1456 1456 1457 1457 1457 1456 1457 1457 1457 1456 1456 1456 1457 1458 1458 1459 1461 1463 1464 1465 1467 1468 1470 1471 1472 1473 1474 1475 1475 1476 1477 1477 1476 1476 1476 1476 1476 1475 1475 1474 1473 1473 1472 1472
1453 1454 1454 1455 1455 1455 1455 1455 1455 1455 1455 1455 1456 1457 1458 1458 1460 1461 1463 1464 1465 1465 1467 1468 1469 1470 1471 1472 1473 1473 1473 1473 1473 1472 1472 1472 1471 1471 1470 1470 1469 1468 1467 1467
1451 1451 1452 1452 1453 1454 1454 1453 1453 1453 1454 1454 1455 1455 1456 1457 1458 1459 1460 1462 1463 1464 1465 1466 1467 1467 1468 1469 1469 1469 1469 1469 1469 1469 1468 1467 1467 1467 1466 1466 1465 1463 1463 1462
1448 1448 1449 1449 1450 1451 1451 1452 1452 1452 1453 1452 1452 1453 1455 1456 1456 1457 1458 1460 1461 1462 1463 1464 1464 1464 1465 1466 1466 1466 1466 1465 1465 1464 1464 1464 1463 1462 1462 1461 1460 1459 1458 1457
1445 1445 1446 1447 1447 1447 1448 1449 1450 1450 1451 1451 1450 1451 1452 1454 1455 1455 1456 1457 1458 1459 1460 1461 1461 1461 1462 1462 1463 1462 1462 1461 1461 1461 1460 1460 1459 1458 1457 1456 1455 1454 1453 1452
1442 1443 1444 1444 1445 1446 1447 1447 1448 1449 1449 1450 1449 1449 1450 1451 1453 1454 1455 1455 1456 1456 1456 1456 1457 1457 1458 1458 1459 1459 1458 1458 1457 1457 1456 1455 1454 1454 1453 1452 1450 1449 1448 1447
1441 1442 1442 1443 1444 1444 1445 1445 1446 1447 1448 1448 1448 1448 1449 1450 1451 1452 1453 1453 1453 1453 1452 1452 1453 1454 1455 1455 1455 1455 1454 1454 1453 1453 1452 1451 1450 1450 1449 1447 1446 1445 1444 1442
1440 1441 1442 1442 1443 1443 1444 1445 1445 1446 1446 1446 1447 1447 1448 1448 1449 1449 1450 1451 1451 1450 1450 1450 1450 1451 1452 1452 1452 1451 1451 1450 1450 1449 1448 1448 1447 1446 1445 1443 1442 1441 1440 1438
1438 1439 1440 1441 1441 1442 1443 1444 1445 1445 1445 1445 1445 1446 1446 1447 1447 1447 1448 1449 1449 1449 1448 1448 1448 1449 1449 1449 1449 1449 1448 1448 1447 1446 1445 1444 1443 1442 1441 1440 1439 1437 1436 1435
1437 1438 1439 1440 1440 1441 1442 1443 1443 1443 1443 1444 1444 1445 1445 1446 1446 1446 1447 1447 1447 1447 1447 1447 1446 1447 1447 1447 1447 1446 1445 1445 1444 1444 1443 1442 1441 1440 1438 1437 1436 1435 1433 1432
1436 1437 1437 1438 1438 1439 1440 1441 1442 1442 1442 1442 1443 1443 1443 1444 1445 1445 1445 1445 1445 1445 1445 1445 1445 1445 1445 1445 1445 1444 1443 1443 1442 1441 1440 1439 1438 1437 1436 1435 1433 1432 1430 1429
1435 1436 1436 1437 1437 1438 1439 1439 1439 1440 1440 1440 1441 1442 1442 1443 1443 1443 1443 1444 1444 1444 1444 1444 1444 1444 1444 1444 1443 1443 1442 1441 1440 1439 1438 1437 1436 1435 1434 1433 1432 1430 1429 1427
1434 1435 1435 1435 1436 1437 1437 1437 1438 1439 1439 1440 1440 1441 1441 1441 1442 1442 1442 1442 1443 1443 1443 1443 1443 1443 1443 1442 1442 1441 1441 1440 1438 1437 1436 1435 1434 1433 1432 1431 1430 1429 1427 1426